Change the Weather History Date:

Thursday, September 18, 2014

  Actual Average Record
Temperature  
Mean Temperature 82 °F -  
Max Temperature 90 °F 87 °F 91 °F (1996)
Min Temperature 74 °F 76 °F 73 °F (1999)
Cooling Degree Days 17    
Growing Degree Days 32 (Base 50)    
Moisture  
Dew Point 75 °F    
Average Humidity 81    
Maximum Humidity 95    
Minimum Humidity 56    
Precipitation  
Precipitation 0.00 in 0.50 in - ()
Sea Level Pressure  
Sea Level Pressure 29.84 in    
Wind  
Wind Speed 3 mph ()    
Max Wind Speed 10 mph    
Max Gust Speed -    
Visibility 4.2 miles    
Events      
Averages and records for this station are not official NWS values.
T = Trace of Precipitation, MM = Missing Value Source: Averaged Metar Reports

Daily Weather History Graph

Daily Weather History Graph

Search for Another Location

Airport or City:

Trip Planner

Search our weather history database for the weather conditions in past years. The results will help you decide how hot, cold, wet, or windy it might be!

Date:

Astronomy

Sep. 18, 2014 Rise Set
Actual Time 6:16 AM ICT 6:25 PM ICT
Civil Twilight 5:55 AM ICT 6:46 PM ICT
Nautical Twilight 5:31 AM ICT 7:10 PM ICT
Astronomical Twilight 5:07 AM ICT 7:34 PM ICT
Moon 1:27 AM ICT (9/18) 2:11 PM ICT (9/18)
Length of Visible Light 12h 50m
Length of Day
12h 08m
Waning Crescent, 30% of the Moon is Illuminated
Sep 18
Waning Crescent
Sep 24
New
Oct 2
First Quarter
Oct 8
Full
Oct 16
Last Quarter

Hourly Weather History & Observations

Time (ICT) Temp. Heat Index Dew Point Humidity Pressure Visibility Wind Dir Wind Speed Gust Speed Precip Events Conditions
12:00 AM 75.2 °F - 73.4 °F 94% 29.86 in 6.2 mi Variable 2.3 mph - N/A   Mostly Cloudy
12:30 AM 75.2 °F - 73.4 °F 94% 29.86 in 6.2 mi Variable 2.3 mph - N/A   Mostly Cloudy
1:00 AM 77 °F - 75 °F 93% 29.81 in 6 mi Calm Calm - -   Scattered Clouds
1:00 AM 75.2 °F - 73.4 °F 94% 29.83 in 6.2 mi SE 2.3 mph - N/A   Mostly Cloudy
1:30 AM 75.2 °F - 73.4 °F 94% 29.83 in 6.2 mi Variable 2.3 mph - N/A   Mostly Cloudy
2:00 AM 75.2 °F - 71.6 °F 89% 29.83 in 6.2 mi Variable 2.3 mph - N/A   Mostly Cloudy
2:30 AM 75.2 °F - 71.6 °F 89% 29.80 in 6.2 mi Variable 2.3 mph - N/A   Mostly Cloudy
3:00 AM 75.2 °F - 71.6 °F 89% 29.80 in 6.2 mi SE 2.3 mph - N/A   Mostly Cloudy
4:00 AM 77 °F - 75 °F 93% 29.79 in 6 mi Calm Calm - -   Scattered Clouds
4:30 AM 75.2 °F - 71.6 °F 89% 29.80 in 6.2 mi Variable 1.2 mph - N/A   Mostly Cloudy
5:00 AM 75.2 °F - 71.6 °F 89% 29.80 in 6.2 mi SE 2.3 mph - N/A   Mostly Cloudy
5:30 AM 75.2 °F - 71.6 °F 89% 29.80 in 5.6 mi Variable 1.2 mph - N/A   Mostly Cloudy
6:00 AM 75.2 °F - 73.4 °F 94% 29.83 in 5.0 mi SE 3.5 mph - N/A   Mostly Cloudy
6:30 AM 75.2 °F - 73.4 °F 94% 29.83 in 5.0 mi Variable 2.3 mph - N/A   Mostly Cloudy
7:00 AM 77 °F - 76 °F 95% 29.80 in 5 mi Calm Calm - -   Mist
7:00 AM 75.2 °F - 73.4 °F 94% 29.83 in 5.0 mi Variable 2.3 mph - N/A   Mostly Cloudy
7:30 AM 77.0 °F - 73.4 °F 89% 29.86 in 5.0 mi ESE 3.5 mph - N/A   Mostly Cloudy
8:00 AM 78.8 °F - 75.2 °F 89% 29.86 in 5.0 mi East 5.8 mph - N/A   Mostly Cloudy
8:30 AM 80.6 °F 86.2 °F 75.2 °F 84% 29.89 in 5.0 mi ENE 5.8 mph - N/A   Mostly Cloudy
9:00 AM 82.4 °F 89.5 °F 75.2 °F 79% 29.86 in 5.0 mi East 6.9 mph - N/A   Mostly Cloudy
9:30 AM 84.2 °F 92.3 °F 75.2 °F 74% 29.86 in 5.0 mi East 8.1 mph - N/A   Mostly Cloudy
10:00 AM 87 °F - 76 °F 64% 29.85 in 5 mi East 2.3 mph - -   Mist
10:00 AM 84.2 °F 92.3 °F 75.2 °F 74% 29.86 in 5.0 mi East 9.2 mph - N/A   Scattered Clouds
10:30 AM 86.0 °F 95.1 °F 75.2 °F 70% 29.86 in 5.0 mi ENE 5.8 mph - N/A   Scattered Clouds
11:00 AM 86.0 °F 96.9 °F 77.0 °F 74% 29.86 in 4.3 mi NE 6.9 mph - N/A   Scattered Clouds
11:30 AM 87.8 °F 95.6 °F 73.4 °F 62% 29.86 in 3.1 mi East 9.2 mph - N/A   Haze
12:30 PM 89.6 °F 98.2 °F 73.4 °F 59% 29.83 in 3.1 mi East 10.4 mph - N/A   Haze
1:00 PM 91 °F - 77 °F 56% 29.80 in 3 mi ENE 4.6 mph - -   Mist
1:00 PM 89.6 °F 98.2 °F 73.4 °F 59% 29.80 in 3.1 mi East 6.9 mph - N/A   Haze
1:30 PM 87.8 °F 97.6 °F 75.2 °F 66% 29.80 in - East 6.9 mph - N/A   Haze
2:00 PM 86.0 °F 93.4 °F 73.4 °F 66% 29.83 in 3.1 mi East 4.6 mph - N/A   Scattered Clouds
2:30 PM 86.0 °F 96.9 °F 77.0 °F 74% 29.80 in 3.1 mi West 10.4 mph - N/A   Haze
3:00 PM 86.0 °F 96.9 °F 77.0 °F 74% 29.80 in 3.1 mi West 6.9 mph - N/A   Mostly Cloudy
3:30 PM 87.8 °F 97.6 °F 75.2 °F 66% 29.80 in 3.1 mi WNW 5.8 mph - N/A   Mostly Cloudy
4:00 PM 89 °F - 78 °F 64% 29.77 in 2 mi WSW 3.5 mph - -   Mist
4:00 PM 86.0 °F 96.9 °F 77.0 °F 74% 29.80 in 3.1 mi WNW 6.9 mph - N/A   Mostly Cloudy
4:30 PM 86.0 °F 96.9 °F 77.0 °F 74% 29.80 in 2.5 mi West 10.4 mph - N/A   Mostly Cloudy
5:00 PM 86.0 °F 96.9 °F 77.0 °F 74% 29.80 in 2.5 mi WNW 6.9 mph - N/A   Mostly Cloudy
5:30 PM 86.0 °F 96.9 °F 77.0 °F 74% 29.80 in 2.5 mi West 8.1 mph - N/A   Mostly Cloudy
6:00 PM 84.2 °F 94.1 °F 77.0 °F 79% 29.80 in 2.5 mi West 6.9 mph - N/A   Mostly Cloudy
7:00 PM 86 °F - 77 °F 69% 29.78 in 2 mi West 2.3 mph - -   Mist
7:30 PM 80.6 °F 86.2 °F 75.2 °F 84% 29.83 in 2.5 mi Variable 2.3 mph - N/A   Mostly Cloudy
8:00 PM 80.6 °F 86.2 °F 75.2 °F 84% 29.86 in 2.5 mi Calm Calm - N/A   Mostly Cloudy
8:30 PM 78.8 °F - 77.0 °F 94% 29.86 in 3.1 mi Calm Calm - N/A   Scattered Clouds
9:00 PM 78.8 °F - 75.2 °F 89% 29.89 in 3.1 mi Calm Calm - N/A   Scattered Clouds
9:30 PM 80.6 °F 87.1 °F 77.0 °F 89% 29.89 in 3.1 mi SW 5.8 mph - N/A   Scattered Clouds
10:00 PM 84 °F - 78 °F 77% 29.85 in 3 mi Calm Calm - -   Mist
10:00 PM 80.6 °F 87.1 °F 77.0 °F 89% 29.92 in 3.1 mi Calm Calm - N/A   Scattered Clouds
10:30 PM 78.8 °F - 77.0 °F 94% 29.92 in 3.1 mi Calm Calm - N/A   Scattered Clouds
11:00 PM 80.6 °F 87.1 °F 77.0 °F 89% 29.92 in 3.1 mi West 5.8 mph - N/A   Scattered Clouds
11:30 PM 80.6 °F 87.1 °F 77.0 °F 89% 29.92 in 3.1 mi WNW 5.8 mph - N/A   Scattered Clouds